Location: ??????
(38.3184°N, 23.6932°E)
Time: 01:55:51
(UTC+00:00)

Cosmos 724 - Pass Details

Date: 16 October 2021
Orbit: 857 x 937 km, 65.6° (Epoch: 04 December)

Event Time Altitude Azimuth Distance (km) Brightness Sun altitude
Rises 17:35:15 0° 334° (NNW) 3,524 7.9 -22.2°
Reaches altitude 10° 17:37:52 10° 339° (NNW) 2,568 7.0 -22.7°
Maximum altitude 17:43:39 51° 55° (NE) 1,099 4.4 -23.8°
Enters shadow 17:43:52 51° 63° (ENE) 1,102 4.4 -23.9°
